Home > Weather > Trieste > Past weeks

Flag for Italy Past Weather in Trieste, Italy — Yesterday and Last 2 Weeks

Now
77 °F

Sunny.


Feels Like: 79 °F
Forecast: 69 / 87 °F
Wind: 2 mph from West

Location: Trieste

Current Time: Aug 24, 2016 at 10:40:28 AM

Latest Report: Aug 24, 2016 at 9:00 AM


Visibility: 13 mi

Pressure: 30.19 "Hg

Humidity: 54%

Dew Point: 59 °F

Location of TriesteLocation

Past Weather in Trieste — Graph

°F

Trieste Temperature Yesterday

Maximum temperature yesterday: 86 °F (at 4:00 PM)
Minimum temperature yesterday: 66 °F (at 6:00 AM)
Average temperature yesterday: 77 °F

High & Low Weather Summary for the Past Weeks

 TemperatureHumidityPressure
High91 °F (Aug 9, 1:00 PM)95% (Aug 10, 1:00 PM)30.28 "Hg (Aug 10, 1:00 PM)
Low63 °F (Aug 12, 4:00 AM)29% (Aug 23, 4:00 PM)29.79 "Hg (Aug 19, 4:00 AM)
Average74 °F63%30.03 "Hg
* Reported Aug 9 9:00 AM — Aug 24 9:00 AM, Trieste, Weather by CustomWeather, © 2016

Note: Actual official high and low records may vary slightly from our data, if they occured in-between our weather recording intervals... More about our weather records

Advertising

Trieste Weather History for the Previous 24 Hours

Scroll right to see more
 ConditionsComfort  
Time TempWeatherWind HumidityBarometerVisibility
9:00 AM
Wed, Aug 24
77 °FSunny.2 mph54%30.19 "Hg12 mi
8:00 AM73 °FSunny.1 mph60%30.19 "Hg12 mi
7:00 AM72 °FSunny.2 mph59%30.18 "Hg12 mi
6:00 AM73 °FPassing clouds.3 mph58%30.17 "Hg12 mi
5:00 AM70 °FClear.No wind62%30.18 "Hg12 mi
4:00 AM72 °FClear.1 mph58%30.18 "Hg12 mi
3:00 AM69 °FClear.1 mph62%30.19 "Hg12 mi
2:00 AM69 °FClear.1 mph60%30.20 "Hg12 mi
1:00 AM73 °FClear.1 mph50%30.20 "Hg12 mi
12:00 AM74 °FClear.3 mph48%30.19 "Hg12 mi
11:00 PM
Tue, Aug 23
75 °FPassing clouds.2 mph47%30.20 "Hg12 mi
10:00 PM76 °FPassing clouds.2 mph47%30.19 "Hg12 mi
9:00 PM77 °FPassing clouds.2 mph42%30.18 "Hg12 mi
8:00 PM80 °FPassing clouds.5 mph37%30.17 "Hg12 mi
7:00 PM83 °FSunny.1 mph35%30.15 "Hg31 mi
6:00 PM85 °FSunny.6 mph33%30.15 "Hg31 mi
5:00 PM86 °FSunny.6 mph31%30.15 "Hg31 mi
4:00 PM86 °FSunny.5 mph29%30.16 "Hg31 mi
3:00 PM86 °FSunny.8 mph30%30.17 "Hg31 mi
2:00 PM85 °FSunny.7 mph30%30.19 "Hg31 mi
1:00 PM84 °FSunny.6 mph31%30.20 "Hg31 mi
12:00 PM83 °FSunny.6 mph31%30.21 "Hg31 mi
11:00 AM80 °FSunny.7 mph33%30.23 "Hg31 mi
Weather by CustomWeather, © 2016

See weather overviewHow to use our weather pages